GW4949 Weather Reports


time (UTC)temp
F
wind
direction
speed
knots
gust
knots
rain 1hr
in
rain 24hr
in
rain mn
in
humidity
%
barometer
mb
20260508213650 75 346 3.5 4.3 0.00 0.00 0.00 24 1016.5
20260508213146 75 332 2.6 4.3 0.00 0.00 0.00 23 1016.5
20260508212643 75 275 4.3 7.0 0.00 0.00 0.00 25 1016.1
20260508212140 75 322 3.5 5.2 0.00 0.00 0.00 24 1016.5
20260508211635 75 232 0.9 1.7 0.00 0.00 0.00 23 1016.5
20260508211131 75 187 1.7 1.7 0.00 0.00 0.00 24 1016.5
20260508210628 75 46 4.3 5.2 0.00 0.00 0.00 23 1016.5
20260508210126 75 298 4.3 6.1 0.00 0.00 0.00 23 1016.5
20260508205623 76 328 0.9 1.7 0.00 0.00 0.00 24 1016.5
20260508205119 74 172 0.9 0.9 0.00 0.00 0.00 24 1016.5
20260508204615 74 265 3.5 4.3 0.00 0.00 0.00 23 1016.9
20260508204112 75 238 3.5 4.3 0.00 0.00 0.00 23 1016.9
20260508203608 74 295 2.6 2.6 0.00 0.00 0.00 23 1016.9
20260508203104 74 308 3.5 5.2 0.00 0.00 0.00 23 1016.9
20260508202600 74 296 4.3 5.2 0.00 0.00 0.00 23 1016.9
20260508202058 74 247 4.3 6.1 0.00 0.00 0.00 24 1016.9
20260508201554 73 190 1.7 1.7 0.00 0.00 0.00 23 1016.9
20260508201051 73 263 4.3 5.2 0.00 0.00 0.00 24 1017.7
20260508200548 73 290 4.3 5.2 0.00 0.00 0.00 23 1016.9
20260508200044 74 266 4.3 5.2 0.00 0.00 0.00 24 1017.2
20260508195541 74 195 1.7 1.7 0.00 0.00 0.00 24 1016.5
20260508195037 74 271 1.7 4.3 0.00 0.00 0.00 25 1016.9
20260508194534 73 36 2.6 2.6 0.00 0.00 0.00 25 1016.9
20260508194031 73 187 1.7 1.7 0.00 0.00 0.00 26 1016.9
20260508193527 72 286 4.3 6.1 0.00 0.00 0.00 26 1017.2
20260508193024 73 261 6.1 7.8 0.00 0.00 0.00 25 1016.9
20260508192521 73 331 2.6 2.6 0.00 0.00 0.00 26 1016.9
20260508192018 73 156 2.6 4.3 0.00 0.00 0.00 26 1017.2
20260508191515 73 262 2.6 2.6 0.00 0.00 0.00 27 1017.2
20260508191011 73 292 1.7 2.6 0.00 0.00 0.00 27 1017.2
20260508190509 73 174 0.9 1.7 0.00 0.00 0.00 27 1017.7
20260508190005 72 68 0.9 1.7 0.00 0.00 0.00 29 1017.2
20260508185502 72 203 1.7 1.7 0.00 0.00 0.00 28 1017.7
20260508185000 72 357 2.6 2.6 0.00 0.00 0.00 27 1017.2
20260508184457 73 294 5.2 6.1 0.00 0.00 0.00 26 1017.7
20260508183954 73 224 2.6 2.6 0.00 0.00 0.00 28 1017.7
20260508183450 71 148 0.0 0.9 0.00 0.00 0.00 26 1017.7
20260508182945 72 302 4.3 5.2 0.00 0.00 0.00 28 1017.7
20260508182443 72 262 2.6 4.3 0.00 0.00 0.00 27 1017.7
20260508181938 72 21 2.6 4.3 0.00 0.00 0.00 26 1017.7
20260508181435 72 317 4.3 6.1 0.00 0.00 0.00 29 1017.7
20260508180933 71 321 2.6 2.6 0.00 0.00 0.00 28 1017.7
20260508180429 72 259 3.5 4.3 0.00 0.00 0.00 27 1017.7
20260508175925 71 183 0.9 0.9 0.00 0.00 0.00 29 1017.7
20260508175422 72 258 2.6 4.3 0.00 0.00 0.00 28 1017.7
20260508174920 72 13 3.5 4.3 0.00 0.00 0.00 30 1017.7
20260508174417 71 258 2.6 4.3 0.00 0.00 0.00 32 1017.7
20260508173914 70 249 1.7 1.7 0.00 0.00 0.00 30 1017.7
20260508173411 70 208 3.5 4.3 0.00 0.00 0.00 31 1018.0
20260508172906 71 335 2.6 4.3 0.00 0.00 0.00 34 1017.7
20260508172405 71 293 1.7 1.7 0.00 0.00 0.00 35 1017.7
20260508171900 71 235 0.9 1.7 0.00 0.00 0.00 33 1018.0
20260508171357 70 228 2.6 2.6 0.00 0.00 0.00 33 1017.7
20260508170853 70 201 0.0 0.9 0.00 0.00 0.00 33 1017.7
20260508170351 70 123 0.0 0.9 0.00 0.00 0.00 33 1017.7
20260508165847 71 247 1.7 2.6 0.00 0.00 0.00 33 1017.7
20260508165345 73 155 1.7 1.7 0.00 0.00 0.00 30 1017.7
20260508164841 72 120 1.7 1.7 0.00 0.00 0.00 31 1017.7
20260508164338 71 208 1.7 1.7 0.00 0.00 0.00 33 1017.7
20260508163836 70 145 2.6 2.6 0.00 0.00 0.00 33 1017.7
20260508163334 69 119 0.9 1.7 0.00 0.00 0.00 34 1017.7
20260508162829 69 248 1.7 1.7 0.00 0.00 0.00 34 1017.7
20260508162326 69 87 1.7 1.7 0.00 0.00 0.00 35 1017.2
20260508161823 69 174 1.7 1.7 0.00 0.00 0.00 33 1017.7
20260508161320 68 100 0.0 0.0 0.00 0.00 0.00 34 1017.7
20260508160817 68 217 1.7 1.7 0.00 0.00 0.00 35 1017.2
20260508160316 69 173 1.7 2.6 0.00 0.00 0.00 35 1017.2
20260508155812 69 192 1.7 1.7 0.00 0.00 0.00 34 1017.2
20260508155309 70 239 1.7 1.7 0.00 0.00 0.00 35 1017.2
20260508154805 71 152 0.0 0.0 0.00 0.00 0.00 31 1017.2
20260508154303 71 135 0.0 0.0 0.00 0.00 0.00 32 1017.2
20260508153759 71 138 0.0 0.0 0.00 0.00 0.00 34 1016.9
20260508153257 72 157 0.9 1.7 0.00 0.00 0.00 32 1016.9
20260508152753 70 157 0.0 0.0 0.00 0.00 0.00 35 1017.2
20260508152249 67 167 0.0 0.0 0.00 0.00 0.00 35 1016.9
20260508151745 66 166 0.0 0.0 0.00 0.00 0.00 37 1017.2
20260508151243 68 163 0.0 0.0 0.00 0.00 0.00 36 1016.9
20260508150739 69 165 0.0 0.0 0.00 0.00 0.00 34 1016.9
20260508150236 67 153 0.0 0.0 0.00 0.00 0.00 36 1016.9
20260508145732 66 139 0.0 0.0 0.00 0.00 0.00 37 1016.9
20260508145229 64 166 0.0 0.0 0.00 0.00 0.00 39 1016.9
20260508144726 64 166 0.0 0.0 0.00 0.00 0.00 39 1017.2
20260508144224 63 175 0.9 0.9 0.00 0.00 0.00 37 1016.9
20260508143721 62 203 0.9 0.9 0.00 0.00 0.00 41 1017.2
20260508143218 63 181 0.9 0.9 0.00 0.00 0.00 41 1016.9
20260508142714 65 177 0.9 1.7 0.00 0.00 0.00 40 1016.9
20260508142211 66 144 0.0 0.9 0.00 0.00 0.00 36 1016.9
20260508141707 66 144 0.0 0.9 0.00 0.00 0.00 36 1016.9
20260508141205 65 154 0.0 0.0 0.00 0.00 0.00 38 1016.9
20260508140702 64 166 0.0 0.0 0.00 0.00 0.00 39 1016.9
20260508140159 62 168 0.0 0.0 0.00 0.00 0.00 40 1016.9
20260508135655 61 144 0.0 0.0 0.00 0.00 0.00 40 1016.5
20260508135150 60 150 0.0 0.0 0.00 0.00 0.00 42 1016.5
20260508134647 60 153 0.0 0.0 0.00 0.00 0.00 42 1016.5
20260508134144 59 142 0.0 0.0 0.00 0.00 0.00 43 1016.5
20260508133641 59 138 0.0 0.9 0.00 0.00 0.00 43 1016.5
20260508133138 60 147 0.9 1.7 0.00 0.00 0.00 42 1016.5
20260508132636 59 155 0.0 0.0 0.00 0.00 0.00 43 1016.5
20260508132133 58 164 0.0 0.0 0.00 0.00 0.00 44 1016.1
20260508131628 57 164 0.0 0.0 0.00 0.00 0.00 45 1016.5
20260508131125 56 165 0.0 0.0 0.00 0.00 0.00 46 1016.1
20260508130622 55 164 0.0 0.0 0.00 0.00 0.00 47 1016.1
20260508130119 55 137 0.9 1.7 0.00 0.00 0.00 47 1016.5
20260508125614 56 171 0.0 0.0 0.00 0.00 0.00 46 1016.1
20260508125112 55 117 0.9 0.9 0.00 0.00 0.00 46 1016.1
20260508124610 55 125 0.9 0.9 0.00 0.00 0.00 46 1015.7
20260508124106 55 149 0.9 1.7 0.00 0.00 0.00 46 1016.1
20260508123605 55 101 0.0 0.9 0.00 0.00 0.00 48 1015.7
20260508123102 55 142 0.9 0.9 0.00 0.00 0.00 49 1015.7
20260508122558 55 148 0.9 0.9 0.00 0.00 0.00 48 1015.7
20260508122055 55 140 0.0 0.9 0.00 0.00 0.00 49 1015.7
20260508121553 55 130 1.7 1.7 0.00 0.00 0.00 48 1015.7
20260508121051 55 136 1.7 1.7 0.00 0.00 0.00 49 1015.7
20260508120548 55 120 0.9 0.9 0.00 0.00 0.00 48 1015.7
20260508120047 56 126 1.7 1.7 0.00 0.00 0.00 47 1015.7
20260508115544 56 99 2.6 2.6 0.00 0.00 0.00 47 1015.7
20260508115040 56 118 0.9 1.7 0.00 0.00 0.00 47 1015.7
20260508114537 56 103 1.7 2.6 0.00 0.00 0.00 47 1015.7
20260508114033 56 98 0.9 1.7 0.00 0.00 0.00 46 1015.7
20260508113531 56 125 0.9 1.7 0.00 0.00 0.00 47 1015.7
20260508113029 56 75 1.7 1.7 0.00 0.00 0.00 47 1015.3
20260508112525 56 140 0.0 0.9 0.00 0.00 0.00 48 1015.7
20260508112022 56 89 1.7 2.6 0.00 0.00 0.00 47 1015.7
20260508111519 56 97 2.6 2.6 0.00 0.00 0.00 47 1015.7
20260508111016 56 127 1.7 1.7 0.00 0.00 0.00 47 1015.7
20260508110514 55 125 0.9 0.9 0.00 0.00 0.00 48 1015.3
20260508110009 55 143 0.0 0.0 0.00 0.00 0.00 48 1015.3
20260508105504 55 134 0.9 0.9 0.00 0.00 0.00 48 1015.3
20260508105002 55 145 0.0 0.9 0.00 0.00 0.00 48 1015.3
20260508104500 56 127 0.9 0.9 0.00 0.00 0.00 47 1015.3
20260508103956 56 125 0.9 0.9 0.00 0.00 0.00 47 1015.3
20260508103453 56 111 0.9 0.9 0.00 0.00 0.00 47 1015.7
20260508102949 56 112 2.6 2.6 0.00 0.00 0.00 47 1015.3
20260508102448 56 106 2.6 2.6 0.00 0.00 0.00 47 1015.3
20260508101945 56 125 0.9 0.9 0.00 0.00 0.00 47 1014.9
20260508101443 56 99 0.9 1.7 0.00 0.00 0.00 47 1014.9
20260508100940 56 141 0.9 1.7 0.00 0.00 0.00 47 1014.9
20260508100439 56 100 1.7 1.7 0.00 0.00 0.00 47 1014.9
20260508095934 55 105 0.9 0.9 0.00 0.00 0.00 48 1015.3
20260508095432 54 127 2.6 2.6 0.00 0.00 0.00 48 1015.3
20260508094928 54 146 0.0 0.9 0.00 0.00 0.00 51 1014.9
20260508094425 54 151 0.0 0.0 0.00 0.00 0.00 50 1015.3
20260508093922 54 154 0.0 0.0 0.00 0.00 0.00 51 1014.9
20260508093419 55 156 0.0 0.0 0.00 0.00 0.00 49 1014.9
20260508092917 56 156 0.0 0.0 0.00 0.00 0.00 49 1014.9
20260508092414 57 160 0.0 0.0 0.00 0.00 0.00 47 1015.3
20260508091913 57 180 0.0 0.9 0.00 0.00 0.00 46 1014.9
20260508091409 57 151 0.9 0.9 0.00 0.00 0.00 45 1014.9
20260508090906 57 133 0.9 0.9 0.00 0.00 0.00 45 1014.6
20260508090405 57 130 0.9 0.9 0.00 0.00 0.00 45 1014.9
20260508085900 57 140 0.9 0.9 0.00 0.00 0.00 45 1014.9
20260508085357 57 133 0.0 0.0 0.00 0.00 0.00 46 1014.9
20260508084854 57 158 0.0 0.0 0.00 0.00 0.00 45 1014.9
20260508084350 57 80 0.0 0.0 0.00 0.00 0.00 45 1014.9
20260508083848 57 148 0.0 0.9 0.00 0.00 0.00 45 1014.9
20260508083346 57 141 1.7 1.7 0.00 0.00 0.00 45 1014.9
20260508082845 56 95 0.9 1.7 0.00 0.00 0.00 45 1014.9
20260508082343 56 155 0.0 0.0 0.00 0.00 0.00 46 1014.9
20260508081840 55 136 0.0 0.0 0.00 0.00 0.00 48 1014.9
20260508081337 56 157 0.0 0.0 0.00 0.00 0.00 49 1014.9
20260508080834 57 157 0.0 0.0 0.00 0.00 0.00 47 1014.9
20260508080332 58 175 0.0 0.9 0.00 0.00 0.00 46 1015.3
20260508075828 58 155 0.0 0.9 0.00 0.00 0.00 43 1014.9
20260508075325 58 148 0.0 0.9 0.00 0.00 0.00 43 1014.6
20260508074823 58 137 0.0 0.0 0.00 0.00 0.00 44 1014.6
20260508074320 58 168 0.0 0.0 0.00 0.00 0.00 44 1014.9
20260508073817 59 167 0.0 0.0 0.00 0.00 0.00 43 1014.9
20260508073315 59 88 0.9 0.9 0.00 0.00 0.00 42 1014.9
20260508072811 59 101 1.7 1.7 0.00 0.00 0.00 42 1014.9
20260508072308 59 91 1.7 1.7 0.00 0.00 0.00 42 1014.6
20260508071805 59 105 2.6 2.6 0.00 0.00 0.00 42 1014.6
20260508071303 60 104 0.9 1.7 0.00 0.00 0.00 41 1014.6
20260508070800 60 121 1.7 1.7 0.00 0.00 0.00 41 1014.6
20260508070259 60 122 0.9 1.7 0.00 0.00 0.00 41 1014.9
20260508065756 60 75 0.9 1.7 0.00 0.00 0.00 41 1014.6
20260508065253 60 140 1.7 1.7 0.00 0.00 0.00 40 1014.6
20260508064751 60 99 2.6 4.3 0.00 0.00 0.00 41 1014.6
20260508064249 60 153 0.9 0.9 0.00 0.00 0.00 41 1014.9
20260508063746 60 106 0.9 1.7 0.00 0.00 0.00 41 1014.6
20260508063244 60 103 0.9 0.9 0.00 0.00 0.00 41 1014.6
20260508062741 60 125 0.9 1.7 0.00 0.00 0.00 41 1014.6
20260508062239 60 114 2.6 4.3 0.00 0.00 0.00 41 1014.9
20260508061735 60 96 3.5 4.3 0.00 0.00 0.00 41 1014.6
20260508061232 60 151 0.9 1.7 0.00 0.00 0.00 41 1014.9
20260508060729 60 113 2.6 2.6 0.00 0.00 0.00 41 1014.6
20260508060227 60 99 2.6 2.6 0.00 0.00 0.00 41 1014.6
20260508055722 60 128 0.9 1.7 0.00 0.00 0.00 41 1014.6
20260508055220 60 133 0.9 0.9 0.00 0.00 0.00 41 1014.6
20260508054716 60 116 0.9 0.9 0.00 0.00 0.00 40 1014.6
20260508054214 61 132 0.9 0.9 0.00 0.00 0.00 40 1014.6
20260508053710 60 98 0.9 1.7 0.00 0.00 0.00 40 1014.6
20260508053208 60 142 0.9 0.9 0.00 0.00 0.00 41 1014.6
20260508052705 60 123 0.0 0.0 0.00 0.00 0.00 42 1014.1
20260508052202 60 156 0.0 0.0 0.00 0.00 0.00 41 1014.6
20260508051658 61 156 0.0 0.0 0.00 0.00 0.00 41 1014.1
20260508051154 61 156 0.0 0.0 0.00 0.00 0.00 40 1014.6
20260508050650 61 163 0.0 0.0 0.00 0.00 0.00 40 1014.6
20260508050148 62 149 0.0 0.0 0.00 0.00 0.00 40 1014.1
20260508045643 63 175 0.0 0.0 0.00 0.00 0.00 39 1014.1
20260508045141 63 163 0.0 0.0 0.00 0.00 0.00 37 1014.1
20260508044638 63 86 0.9 1.7 0.00 0.00 0.00 38 1014.6
20260508044134 63 124 2.6 2.6 0.00 0.00 0.00 38 1014.6
20260508043631 63 151 0.9 1.7 0.00 0.00 0.00 38 1014.6
20260508043129 63 128 1.7 2.6 0.00 0.00 0.00 38 1014.1
20260508042625 63 108 0.9 0.9 0.00 0.00 0.00 37 1014.1
20260508042123 64 110 1.7 1.7 0.00 0.00 0.00 37 1014.1
20260508041618 64 141 0.0 0.9 0.00 0.00 0.00 37 1014.1
20260508041115 64 92 2.6 4.3 0.00 0.00 0.00 36 1014.6
20260508040612 64 119 0.9 0.9 0.00 0.00 0.00 37 1014.1
20260508040110 64 104 1.7 1.7 0.00 0.00 0.00 36 1014.1
20260508035607 64 150 0.9 0.9 0.00 0.00 0.00 36 1014.1
20260508035104 64 140 2.6 2.6 0.00 0.00 0.00 36 1013.8
20260508034601 64 141 1.7 2.6 0.00 0.00 0.00 37 1013.8
20260508034058 64 142 0.9 1.7 0.00 0.00 0.00 37 1013.8
20260508033555 65 124 0.9 0.9 0.00 0.00 0.00 37 1013.8
20260508033054 65 138 0.9 0.9 0.00 0.00 0.00 37 1013.8
20260508032549 65 129 0.9 0.9 0.00 0.00 0.00 36 1014.1
20260508032047 65 157 0.0 0.0 0.00 0.00 0.00 37 1013.8
20260508031544 65 151 0.9 1.7 0.00 0.00 0.00 37 1013.8
20260508031040 65 163 0.0 0.0 0.00 0.00 0.00 37 1013.4
20260508030537 65 153 0.0 0.0 0.00 0.00 0.00 38 1014.1
20260508030035 65 144 0.0 0.9 0.00 0.00 0.00 37 1013.8
20260508025530 65 154 0.0 0.0 0.00 0.00 0.00 37 1013.8
20260508025028 65 147 0.0 0.9 0.00 0.00 0.00 37 1013.8
20260508024524 66 156 0.0 0.0 0.00 0.00 0.00 38 1013.4
20260508024021 67 157 0.0 0.0 0.00 0.00 0.00 38 1013.4
20260508023517 68 157 0.0 0.0 0.00 0.00 0.00 37 1013.8
20260508023015 69 157 0.0 0.0 0.00 0.00 0.00 34 1013.8
20260508022510 70 157 0.0 0.0 0.00 0.00 0.00 33 1013.8
20260508022008 71 157 0.0 0.0 0.00 0.00 0.00 32 1013.4
20260508021503 71 157 0.0 0.0 0.00 0.00 0.00 30 1013.4
20260508020959 72 155 0.0 0.0 0.00 0.00 0.00 29 1013.8
20260508020457 73 157 0.0 0.0 0.00 0.00 0.00 29 1013.8
20260508015954 73 157 0.0 0.0 0.00 0.00 0.00 29 1013.4
20260508015452 73 157 0.0 0.0 0.00 0.00 0.00 29 1013.4
20260508014949 73 157 0.0 0.0 0.00 0.00 0.00 28 1013.4
20260508014445 74 157 0.0 0.0 0.00 0.00 0.00 27 1013.4
20260508013941 74 175 0.0 0.0 0.00 0.00 0.00 27 1013.4
20260508013437 74 189 0.9 0.9 0.00 0.00 0.00 26 1013.4
20260508012935 74 162 0.9 1.7 0.00 0.00 0.00 27 1013.4
20260508012432 73 178 0.9 0.9 0.00 0.00 0.00 27 1013.4
20260508011929 74 169 0.9 0.9 0.00 0.00 0.00 26 1013.4
20260508011427 73 179 0.0 0.9 0.00 0.00 0.00 26 1013.4
20260508010924 74 197 0.9 0.9 0.00 0.00 0.00 27 1013.4
20260508010421 74 184 0.9 0.9 0.00 0.00 0.00 27 1013.8
20260508005918 74 165 0.0 0.0 0.00 0.00 0.00 27 1013.4
20260508005415 74 138 1.7 1.7 0.00 0.00 0.00 26 1013.4
20260508004911 75 177 0.0 0.9 0.00 0.00 0.00 25 1013.4
20260508004408 74 221 1.7 1.7 0.00 0.00 0.00 26 1013.8
20260508003904 74 187 0.9 0.9 0.00 0.00 0.00 26 1013.8
20260508003401 75 168 0.9 1.7 0.00 0.00 0.00 25 1013.8
20260508002858 75 350 2.6 2.6 0.00 0.00 0.00 25 1013.8
20260508002355 75 142 0.9 0.9 0.00 0.00 0.00 26 1013.8
20260508001851 74 191 0.0 0.0 0.00 0.00 0.00 26 1013.8
20260508001347 74 226 1.7 1.7 0.00 0.00 0.00 26 1013.8
20260508000844 73 175 0.0 0.0 0.00 0.00 0.00 27 1014.1
20260508000342 73 157 0.0 0.0 0.00 0.00 0.00 27 1013.8
20260507235837 73 251 2.6 2.6 0.00 0.00 0.00 26 1014.1
20260507235335 73 154 0.0 0.0 0.00 0.00 0.00 27 1013.8
20260507234831 73 153 0.9 0.9 0.00 0.00 0.00 27 1014.1
20260507234328 73 173 0.0 0.9 0.00 0.00 0.00 27 1014.1
20260507233824 73 140 0.0 0.0 0.00 0.00 0.00 27 1014.1
20260507233322 73 96 0.0 0.0 0.00 0.00 0.00 27 1014.1
20260507232820 74 185 0.9 0.9 0.00 0.00 0.00 26 1014.1
20260507232316 74 170 0.0 0.0 0.00 0.00 0.00 27 1014.1
20260507231813 73 162 0.9 1.7 0.00 0.00 0.00 27 1014.6
20260507231310 74 224 2.6 2.6 0.00 0.00 0.00 27 1014.1
20260507230806 74 219 1.7 1.7 0.00 0.00 0.00 25 1014.6
20260507230304 74 265 2.6 2.6 0.00 0.00 0.00 27 1014.6
20260507225803 73 198 0.9 0.9 0.00 0.00 0.00 26 1014.6
20260507225259 74 260 4.3 5.2 0.00 0.00 0.00 26 1014.9
20260507224755 74 169 0.9 0.9 0.00 0.00 0.00 26 1014.9
20260507224253 74 250 3.5 5.2 0.00 0.00 0.00 27 1014.6
20260507223749 74 162 0.9 1.7 0.00 0.00 0.00 27 1014.9
20260507223245 74 129 1.7 1.7 0.00 0.00 0.00 27 1015.3
20260507222743 74 48 1.7 1.7 0.00 0.00 0.00 28 1015.3
20260507222238 74 116 0.9 1.7 0.00 0.00 0.00 27 1015.3
20260507221736 74 55 2.6 2.6 0.00 0.00 0.00 28 1014.9
20260507221232 74 192 2.6 2.6 0.00 0.00 0.00 27 1015.3
20260507220728 74 347 3.5 5.2 0.00 0.00 0.00 27 1015.3
20260507220227 74 336 2.6 4.3 0.00 0.00 0.00 27 1015.3
20260507215722 74 249 6.1 7.8 0.00 0.00 0.00 26 1015.3
20260507215220 74 167 0.9 0.9 0.00 0.00 0.00 26 1015.7
20260507214717 73 195 0.9 0.9 0.00 0.00 0.00 27 1015.7
20260507214214 74 336 2.6 4.3 0.00 0.00 0.00 28 1015.7